GFSGBSN_prec_precacc_198.txt.gz
Total_Precipitation_Accumulation
0.45 0.29 0.27 0.30 0.30 0.26 0.25 0.23 0.18 0.14 0.09 0.06 0.06 0.05 0.04 0.03 0.02 0.02 0.02 0.01 0.00 0.01 0.01 0.00 0.01 0.02 0.01 0.00 0.00 0.00 0.00 0.00 0.00 0.00 0.00 0.00 0.00 0.00 0.00 0.00 0.00 0.00 0.00 0.00 0.00 0.00 0.00
1.46 1.22 0.77 0.49 0.34 0.25 0.23 0.25 0.27 0.26 0.24 0.19 0.15 0.11 0.08 0.07 0.06 0.04 0.02 0.00 0.01 0.01 0.01 0.01 0.01 0.03 0.01 0.00 0.00 0.00 0.00 0.00 0.00 0.00 0.00 0.00 0.00 0.00 0.00 0.00 0.00 0.00 0.00 0.00 0.00 0.00 0.00
0.67 0.82 1.08 1.08 0.88 0.74 0.57 0.35 0.28 0.26 0.26 0.25 0.21 0.18 0.18 0.16 0.14 0.11 0.05 0.01 0.00 0.01 0.01 0.01 0.02 0.04 0.01 0.00 0.00 0.00 0.00 0.00 0.00 0.00 0.00 0.00 0.00 0.00 0.00 0.00 0.00 0.00 0.00 0.00 0.00 0.00 0.00
0.64 0.57 0.55 0.62 0.85 0.95 0.92 0.80 0.66 0.50 0.39 0.40 0.40 0.37 0.31 0.26 0.17 0.09 0.04 0.01 0.00 0.01 0.01 0.01 0.02 0.03 0.00 0.00 0.00 0.00 0.00 0.00 0.00 0.00 0.00 0.00 0.00 0.00 0.00 0.00 0.00 0.00 0.00 0.00 0.00 0.00 0.00
0.54 0.60 0.61 0.62 0.67 0.69 0.67 0.63 0.55 0.47 0.47 0.42 0.36 0.29 0.25 0.18 0.17 0.16 0.11 0.03 0.00 0.01 0.01 0.01 0.01 0.02 0.00 0.00 0.00 0.00 0.00 0.00 0.00 0.00 0.00 0.00 0.00 0.00 0.00 0.00 0.00 0.00 0.00 0.00 0.00 0.00 0.00
0.39 0.38 0.38 0.41 0.42 0.40 0.35 0.29 0.22 0.21 0.21 0.21 0.19 0.18 0.15 0.13 0.14 0.16 0.11 0.07 0.02 0.00 0.00 0.00 0.02 0.01 0.00 0.00 0.00 0.00 0.00 0.01 0.02 0.00 0.00 0.00 0.00 0.00 0.00 0.00 0.00 0.00 0.00 0.00 0.00 0.00 0.00
0.47 0.39 0.33 0.29 0.25 0.25 0.24 0.26 0.29 0.26 0.21 0.18 0.14 0.11 0.12 0.13 0.15 0.16 0.09 0.06 0.07 0.09 0.04 0.01 0.01 0.01 0.00 0.00 0.00 0.00 0.00 0.00 0.01 0.01 0.01 0.03 0.00 0.00 0.01 0.00 0.00 0.00 0.00 0.00 0.00 0.00 0.00
0.52 0.46 0.40 0.36 0.33 0.34 0.34 0.35 0.31 0.24 0.22 0.17 0.15 0.14 0.13 0.11 0.15 0.14 0.04 0.05 0.03 0.11 0.16 0.03 0.01 0.00 0.00 0.00 0.00 0.00 0.00 0.01 0.02 0.04 0.05 0.04 0.04 0.00 0.00 0.00 0.00 0.02 0.02 0.00 0.00 0.00 0.00
0.61 0.56 0.49 0.40 0.36 0.32 0.32 0.34 0.34 0.34 0.30 0.21 0.16 0.16 0.17 0.15 0.14 0.07 0.01 0.01 0.01 0.07 0.22 0.03 0.00 0.00 0.00 0.01 0.00 0.00 0.00 0.00 0.05 0.11 0.06 0.09 0.03 0.00 0.00 0.00 0.01 0.01 0.01 0.00 0.00 0.00 0.02
0.69 0.64 0.56 0.48 0.42 0.38 0.36 0.35 0.31 0.28 0.27 0.25 0.21 0.19 0.22 0.26 0.13 0.04 0.03 0.01 0.03 0.21 0.42 0.04 0.02 0.03 0.04 0.07 0.01 0.00 0.00 0.00 0.07 0.09 0.09 0.21 0.04 0.02 0.03 0.02 0.01 0.06 0.00 0.00 0.02 0.08 0.10
0.72 0.63 0.55 0.50 0.47 0.44 0.39 0.35 0.29 0.29 0.29 0.35 0.30 0.24 0.28 0.27 0.15 0.10 0.04 0.01 0.13 0.37 0.50 0.05 0.11 0.05 0.07 0.05 0.01 0.06 0.00 0.00 0.02 0.07 0.20 0.33 0.21 0.24 0.22 0.05 0.02 0.07 0.00 0.01 0.01 0.02 0.08
0.88 0.71 0.57 0.48 0.47 0.44 0.41 0.38 0.32 0.31 0.27 0.29 0.36 0.31 0.37 0.30 0.14 0.03 0.01 0.09 0.30 0.79 0.36 0.03 0.14 0.10 0.14 0.09 0.01 0.02 0.01 0.00 0.00 0.05 0.06 0.10 0.03 0.06 0.05 0.00 0.01 0.02 0.02 0.03 0.05 0.09 0.22
1.43 1.13 0.94 0.75 0.66 0.59 0.49 0.44 0.38 0.36 0.32 0.34 0.41 0.42 0.42 0.20 0.16 0.12 0.19 0.51 0.92 0.60 0.05 0.03 0.08 0.25 0.16 0.20 0.22 0.05 0.02 0.00 0.00 0.03 0.07 0.07 0.06 0.05 0.03 0.12 0.05 0.05 0.04 0.14 0.31 0.24 0.12
2.73 1.92 1.49 1.20 0.92 0.78 0.67 0.62 0.55 0.51 0.47 0.57 0.66 0.72 0.57 0.25 0.11 0.16 0.46 1.17 0.95 0.28 0.02 0.00 0.11 0.23 0.24 0.17 0.24 0.05 0.02 0.02 0.02 0.02 0.04 0.05 0.19 0.07 0.05 0.27 0.12 0.05 0.05 0.10 0.36 0.22 0.19
3.81 3.52 2.70 1.98 1.57 1.29 1.07 0.95 0.94 0.90 0.91 1.03 1.51 1.43 0.96 0.35 0.19 0.44 1.08 1.21 0.42 0.19 0.01 0.00 0.01 0.10 0.11 0.11 0.45 0.54 0.44 0.13 0.10 0.06 0.20 0.14 0.18 0.08 0.04 0.05 0.07 0.08 0.08 0.05 0.20 0.23 0.32
2.94 3.29 3.64 3.66 2.38 1.75 1.54 1.35 1.16 1.35 1.54 1.60 1.60 1.59 0.96 0.37 0.61 1.17 1.77 0.85 0.08 0.03 0.01 0.01 0.02 0.02 0.13 0.08 0.23 0.85 0.41 0.17 0.04 0.02 0.10 0.19 0.23 0.09 0.12 0.08 0.05 0.04 0.04 0.10 0.23 0.54 0.43
2.14 2.40 2.73 3.16 3.55 2.70 2.01 1.64 1.56 1.57 1.72 1.93 2.40 2.49 1.27 0.68 1.70 2.64 1.83 0.42 0.03 0.00 0.03 0.04 0.05 0.07 0.06 0.07 0.14 0.37 0.44 0.40 0.09 0.05 0.06 0.13 0.28 0.17 0.18 0.26 0.06 0.04 0.07 0.10 0.21 0.24 0.46
1.98 2.05 2.10 2.36 2.63 2.98 3.10 2.21 1.82 1.96 1.95 2.91 3.34 2.53 1.47 1.09 2.44 2.10 0.74 0.15 0.06 0.02 0.02 0.06 0.05 0.08 0.19 0.21 0.11 0.11 0.22 0.34 0.23 0.25 0.10 0.09 0.20 0.17 0.04 0.10 0.04 0.05 0.08 0.11 0.35 0.35 0.48
1.91 2.02 1.90 1.98 2.09 2.23 2.76 3.69 3.00 2.69 2.90 3.02 3.82 2.82 2.94 1.80 1.56 0.73 0.27 0.19 0.13 0.08 0.04 0.07 0.08 0.06 0.13 0.18 0.14 0.17 0.15 0.13 0.17 0.20 0.25 0.16 0.37 0.55 0.35 0.17 0.11 0.13 0.06 0.13 0.27 0.27 0.49
1.84 1.74 1.69 1.88 2.03 2.01 2.11 2.90 3.62 3.30 3.26 3.50 4.39 4.31 5.27 3.98 1.12 0.32 0.31 0.35 0.27 0.09 0.09 0.06 0.05 0.06 0.07 0.08 0.06 0.14 0.19 0.16 0.06 0.10 0.15 0.18 0.24 0.51 0.79 0.61 0.52 0.28 0.08 0.07 0.16 0.52 0.73
1.97 1.75 1.55 1.64 1.91 2.07 2.10 2.34 3.09 3.09 3.48 5.19 5.89 2.93 1.80 2.53 1.56 0.34 0.26 0.36 0.32 0.31 0.16 0.13 0.16 0.11 0.09 0.12 0.07 0.07 0.15 0.18 0.13 0.12 0.21 0.28 0.26 0.17 0.13 0.17 0.66 0.50 0.18 0.15 0.26 0.19 0.45
1.99 1.83 1.60 1.57 1.86 2.17 2.41 2.36 2.82 3.40 4.25 6.75 5.91 2.08 0.93 0.49 0.45 0.77 0.70 0.41 0.31 0.26 0.31 0.24 0.20 0.14 0.12 0.14 0.12 0.11 0.12 0.27 0.21 0.16 0.26 0.43 0.44 0.19 0.11 0.09 0.42 0.44 0.15 0.11 0.14 0.17 0.33
1.96 1.79 1.76 1.56 1.51 1.77 2.19 2.50 2.74 3.68 5.71 8.24 4.43 1.04 0.94 1.02 0.87 1.13 0.78 0.32 0.25 0.27 0.33 0.19 0.18 0.23 0.23 0.14 0.16 0.15 0.14 0.15 0.15 0.14 0.24 0.38 0.61 0.77 0.54 0.17 0.70 1.07 0.75 0.50 0.36 0.45 0.31
1.64 1.80 1.70 1.62 1.54 1.47 1.65 1.93 2.31 3.29 5.51 5.40 3.03 1.11 1.71 1.68 0.84 0.63 0.31 0.26 0.27 0.29 0.32 0.19 0.19 0.26 0.15 0.16 0.17 0.14 0.13 0.10 0.08 0.08 0.12 0.34 0.54 0.83 0.62 0.61 1.45 1.00 0.65 0.68 0.89 0.67 0.78
1.63 1.66 1.82 1.59 1.58 1.58 1.62 1.77 2.18 2.43 4.00 4.85 3.20 1.75 1.76 1.47 0.72 0.65 0.54 0.45 0.42 0.39 0.34 0.24 0.19 0.21 0.29 0.51 0.62 0.54 0.40 0.33 0.18 0.10 0.12 0.14 0.42 1.15 1.11 0.96 0.74 0.41 0.25 0.30 0.51 0.45 0.35
1.68 1.66 1.86 1.66 1.54 1.42 1.46 1.62 1.73 1.70 2.38 4.13 4.36 2.51 2.55 1.97 0.94 0.40 0.40 0.38 0.45 0.52 0.43 0.24 0.26 0.25 0.46 0.88 1.08 0.88 0.54 0.43 0.35 0.41 0.15 0.20 0.33 0.98 1.01 1.08 0.61 0.47 0.31 0.13 0.35 0.74 0.42
1.74 1.66 1.66 1.65 1.52 1.38 1.28 1.20 1.15 1.40 1.83 2.71 3.38 2.70 4.20 3.03 0.67 0.38 0.38 0.30 0.24 0.52 0.65 0.40 0.49 0.60 0.72 1.21 1.09 0.58 0.40 0.26 0.38 0.70 0.64 0.45 0.63 0.87 0.73 1.25 0.68 0.17 0.23 0.32 1.17 1.31 0.71
1.84 1.74 1.55 1.38 1.29 1.29 1.31 1.10 0.96 1.17 1.82 2.53 2.50 1.78 3.92 2.72 0.73 0.45 0.32 0.21 0.22 0.56 0.92 0.73 1.00 0.94 1.05 1.15 1.09 0.79 0.56 0.38 0.37 0.55 0.94 0.82 0.86 0.87 1.04 1.20 0.73 0.20 0.33 0.94 1.62 0.95 0.82
1.76 1.73 1.58 1.33 1.12 1.05 1.16 1.06 1.01 1.20 1.83 2.29 2.44 1.75 2.91 3.36 1.35 0.48 0.37 0.15 0.11 0.22 0.68 0.87 0.81 0.71 0.74 0.98 0.92 0.85 0.75 0.61 0.58 0.70 0.91 1.08 0.75 1.05 0.93 0.89 0.63 0.49 0.54 0.41 0.24 0.19 0.15

GFSGBSN_prec_precacc_201.txt.gz
Total_Precipitation_Accumulation
0.45 0.29 0.27 0.30 0.30 0.26 0.25 0.23 0.18 0.14 0.09 0.06 0.06 0.05 0.04 0.03 0.02 0.02 0.02 0.01 0.00 0.01 0.01 0.00 0.01 0.02 0.01 0.00 0.00 0.00 0.00 0.00 0.00 0.00 0.00 0.00 0.00 0.00 0.00 0.00 0.00 0.00 0.00 0.00 0.00 0.00 0.00
1.46 1.22 0.77 0.49 0.34 0.25 0.23 0.25 0.27 0.26 0.24 0.19 0.15 0.11 0.08 0.07 0.06 0.04 0.02 0.00 0.01 0.01 0.01 0.01 0.01 0.03 0.01 0.00 0.00 0.00 0.00 0.00 0.00 0.00 0.00 0.00 0.00 0.00 0.00 0.00 0.00 0.00 0.00 0.00 0.00 0.00 0.00
0.67 0.82 1.08 1.08 0.88 0.74 0.57 0.35 0.28 0.26 0.26 0.25 0.21 0.18 0.18 0.16 0.14 0.11 0.05 0.01 0.00 0.01 0.01 0.01 0.02 0.04 0.01 0.00 0.00 0.00 0.00 0.00 0.00 0.00 0.00 0.00 0.00 0.00 0.00 0.00 0.00 0.00 0.00 0.00 0.00 0.00 0.00
0.64 0.57 0.55 0.62 0.85 0.95 0.92 0.80 0.66 0.50 0.39 0.40 0.40 0.37 0.31 0.26 0.17 0.09 0.04 0.01 0.00 0.01 0.01 0.01 0.02 0.03 0.00 0.00 0.00 0.00 0.00 0.00 0.00 0.00 0.00 0.00 0.00 0.00 0.00 0.00 0.00 0.00 0.00 0.00 0.00 0.00 0.00
0.54 0.60 0.61 0.62 0.67 0.69 0.67 0.63 0.55 0.47 0.47 0.42 0.36 0.29 0.25 0.18 0.17 0.16 0.11 0.03 0.00 0.01 0.01 0.01 0.01 0.02 0.00 0.00 0.00 0.00 0.00 0.00 0.00 0.00 0.00 0.00 0.00 0.00 0.00 0.00 0.00 0.00 0.00 0.00 0.00 0.00 0.00
0.39 0.38 0.38 0.41 0.42 0.40 0.35 0.29 0.22 0.21 0.21 0.21 0.19 0.18 0.15 0.13 0.14 0.16 0.11 0.07 0.02 0.00 0.00 0.00 0.02 0.01 0.00 0.00 0.00 0.00 0.00 0.01 0.02 0.00 0.00 0.00 0.00 0.00 0.00 0.00 0.00 0.00 0.00 0.00 0.00 0.00 0.00
0.47 0.39 0.33 0.29 0.25 0.25 0.24 0.26 0.29 0.26 0.21 0.18 0.14 0.11 0.12 0.13 0.15 0.16 0.09 0.06 0.07 0.09 0.04 0.01 0.01 0.01 0.00 0.00 0.00 0.00 0.00 0.00 0.01 0.01 0.01 0.03 0.00 0.00 0.01 0.00 0.00 0.00 0.00 0.00 0.00 0.00 0.00
0.52 0.46 0.40 0.36 0.33 0.34 0.34 0.35 0.31 0.24 0.22 0.17 0.15 0.14 0.13 0.11 0.15 0.14 0.04 0.05 0.03 0.11 0.16 0.03 0.01 0.00 0.00 0.00 0.00 0.00 0.00 0.01 0.02 0.04 0.05 0.04 0.04 0.00 0.00 0.00 0.00 0.02 0.02 0.00 0.00 0.00 0.00
0.61 0.56 0.49 0.40 0.36 0.32 0.32 0.34 0.34 0.34 0.30 0.21 0.16 0.16 0.17 0.15 0.14 0.07 0.01 0.01 0.01 0.07 0.22 0.03 0.00 0.00 0.00 0.01 0.00 0.00 0.00 0.00 0.05 0.11 0.06 0.09 0.03 0.00 0.00 0.00 0.01 0.01 0.01 0.00 0.00 0.00 0.02
0.69 0.64 0.56 0.48 0.42 0.38 0.36 0.35 0.31 0.28 0.27 0.25 0.21 0.19 0.22 0.26 0.13 0.04 0.03 0.01 0.03 0.21 0.42 0.04 0.02 0.03 0.04 0.07 0.01 0.00 0.00 0.00 0.07 0.09 0.09 0.21 0.04 0.02 0.03 0.02 0.01 0.06 0.00 0.00 0.02 0.08 0.10
0.77 0.65 0.56 0.50 0.47 0.44 0.39 0.35 0.29 0.29 0.29 0.35 0.30 0.24 0.28 0.27 0.15 0.10 0.04 0.01 0.13 0.37 0.50 0.05 0.11 0.05 0.07 0.05 0.01 0.06 0.00 0.00 0.02 0.07 0.20 0.33 0.21 0.24 0.22 0.05 0.02 0.07 0.00 0.01 0.01 0.02 0.08
0.92 0.75 0.60 0.49 0.47 0.44 0.41 0.38 0.32 0.31 0.28 0.29 0.37 0.32 0.38 0.31 0.14 0.03 0.01 0.09 0.30 0.80 0.37 0.03 0.14 0.10 0.14 0.09 0.01 0.02 0.01 0.00 0.00 0.05 0.06 0.10 0.03 0.06 0.05 0.00 0.01 0.02 0.02 0.03 0.05 0.09 0.22
1.44 1.15 0.97 0.77 0.69 0.61 0.50 0.44 0.38 0.36 0.32 0.35 0.44 0.48 0.48 0.22 0.17 0.14 0.21 0.55 0.98 0.63 0.05 0.03 0.08 0.25 0.16 0.20 0.22 0.05 0.02 0.00 0.00 0.03 0.07 0.07 0.06 0.05 0.03 0.12 0.05 0.05 0.04 0.14 0.31 0.24 0.12
2.73 1.92 1.50 1.22 0.94 0.81 0.69 0.63 0.56 0.51 0.47 0.58 0.69 0.83 0.79 0.41 0.20 0.26 0.59 1.36 1.07 0.29 0.02 0.00 0.11 0.23 0.24 0.17 0.24 0.05 0.02 0.02 0.02 0.02 0.04 0.05 0.19 0.07 0.05 0.27 0.12 0.05 0.05 0.10 0.36 0.22 0.19
3.81 3.52 2.71 1.98 1.58 1.30 1.09 0.98 0.97 0.92 0.93 1.04 1.61 1.80 1.47 0.60 0.45 0.74 1.41 1.56 0.50 0.19 0.01 0.00 0.01 0.10 0.11 0.11 0.45 0.54 0.44 0.13 0.10 0.06 0.20 0.14 0.18 0.08 0.04 0.05 0.07 0.08 0.08 0.05 0.20 0.23 0.32
2.94 3.29 3.64 3.66 2.38 1.75 1.56 1.37 1.20 1.41 1.63 1.77 1.98 2.03 1.22 0.47 0.90 1.61 2.30 1.11 0.10 0.03 0.01 0.01 0.02 0.02 0.13 0.08 0.23 0.85 0.41 0.17 0.04 0.02 0.10 0.19 0.23 0.09 0.12 0.08 0.05 0.04 0.04 0.10 0.23 0.54 0.43
2.14 2.40 2.73 3.16 3.55 2.72 2.03 1.66 1.58 1.62 1.95 2.50 3.35 3.23 1.67 0.81 2.14 3.32 2.27 0.53 0.04 0.00 0.03 0.04 0.05 0.07 0.06 0.07 0.14 0.37 0.44 0.40 0.09 0.05 0.06 0.13 0.28 0.17 0.18 0.26 0.06 0.04 0.07 0.10 0.21 0.24 0.46
1.98 2.05 2.10 2.36 2.64 2.98 3.11 2.24 1.87 2.04 2.23 3.50 4.01 3.14 1.91 1.30 2.86 2.56 0.91 0.16 0.07 0.03 0.02 0.06 0.05 0.08 0.19 0.21 0.11 0.11 0.22 0.34 0.23 0.25 0.10 0.09 0.20 0.17 0.04 0.10 0.04 0.05 0.08 0.11 0.36 0.35 0.48
1.91 2.02 1.90 1.98 2.10 2.24 2.77 3.70 3.04 2.82 3.16 3.38 4.26 3.26 3.49 2.17 1.85 0.97 0.33 0.20 0.13 0.09 0.04 0.07 0.08 0.06 0.13 0.18 0.15 0.17 0.15 0.13 0.17 0.20 0.25 0.16 0.37 0.55 0.35 0.17 0.11 0.13 0.06 0.13 0.27 0.27 0.49
1.84 1.75 1.69 1.88 2.03 2.01 2.12 2.91 3.67 3.40 3.41 3.78 4.82 4.82 5.80 4.38 1.27 0.38 0.34 0.39 0.30 0.11 0.10 0.07 0.05 0.07 0.08 0.09 0.07 0.15 0.19 0.16 0.06 0.10 0.15 0.18 0.24 0.51 0.79 0.61 0.52 0.28 0.08 0.07 0.16 0.54 0.73
1.98 1.75 1.55 1.64 1.92 2.07 2.10 2.34 3.10 3.15 3.64 5.56 6.44 3.52 2.20 2.81 1.67 0.36 0.27 0.38 0.36 0.34 0.20 0.16 0.21 0.14 0.11 0.18 0.17 0.19 0.20 0.21 0.14 0.12 0.21 0.28 0.26 0.17 0.13 0.17 0.66 0.50 0.18 0.15 0.26 0.19 0.45
1.99 1.83 1.60 1.57 1.86 2.17 2.42 2.37 2.83 3.42 4.34 7.18 6.46 2.63 1.28 0.64 0.49 0.79 0.75 0.47 0.34 0.29 0.35 0.33 0.29 0.20 0.22 0.29 0.23 0.22 0.20 0.35 0.25 0.17 0.26 0.43 0.45 0.19 0.11 0.09 0.42 0.44 0.15 0.11 0.14 0.17 0.33
1.97 1.80 1.76 1.56 1.51 1.77 2.19 2.50 2.75 3.70 5.82 8.60 4.94 1.41 1.13 1.20 0.97 1.21 0.86 0.37 0.28 0.30 0.44 0.33 0.30 0.40 0.42 0.25 0.23 0.24 0.21 0.19 0.18 0.16 0.26 0.40 0.62 0.77 0.54 0.17 0.70 1.07 0.75 0.50 0.36 0.45 0.31
1.64 1.80 1.70 1.62 1.54 1.47 1.65 1.93 2.33 3.30 5.53 5.47 3.21 1.27 1.84 1.82 0.94 0.69 0.33 0.28 0.29 0.33 0.42 0.39 0.39 0.47 0.31 0.25 0.26 0.21 0.17 0.12 0.09 0.08 0.13 0.35 0.54 0.84 0.62 0.61 1.46 1.00 0.65 0.68 0.89 0.67 0.78
1.63 1.67 1.82 1.59 1.58 1.59 1.63 1.79 2.20 2.46 4.02 4.93 3.33 1.88 1.88 1.62 0.90 0.80 0.65 0.55 0.58 0.62 0.62 0.49 0.40 0.37 0.42 0.61 0.69 0.58 0.41 0.33 0.18 0.10 0.12 0.14 0.43 1.16 1.12 0.97 0.74 0.41 0.25 0.30 0.51 0.45 0.35
1.68 1.66 1.86 1.67 1.55 1.43 1.47 1.65 1.78 1.79 2.54 4.39 4.53 2.58 2.59 2.06 1.10 0.51 0.52 0.50 0.62 0.74 0.64 0.42 0.40 0.36 0.52 0.92 1.10 0.90 0.54 0.43 0.35 0.41 0.15 0.20 0.33 0.99 1.02 1.09 0.61 0.47 0.31 0.13 0.35 0.74 0.42
1.74 1.66 1.66 1.65 1.53 1.41 1.34 1.27 1.23 1.51 2.03 2.83 3.46 2.76 4.28 3.21 0.94 0.56 0.54 0.47 0.38 0.64 0.77 0.52 0.59 0.67 0.74 1.22 1.09 0.58 0.40 0.26 0.38 0.70 0.64 0.45 0.63 0.88 0.74 1.27 0.69 0.17 0.23 0.32 1.19 1.31 0.71
1.87 1.76 1.58 1.41 1.34 1.38 1.41 1.22 1.08 1.31 1.94 2.58 2.61 1.92 4.06 2.94 1.04 0.67 0.44 0.31 0.33 0.63 0.98 0.79 1.04 0.97 1.07 1.15 1.09 0.79 0.56 0.38 0.37 0.55 0.94 0.82 0.86 0.87 1.05 1.22 0.74 0.20 0.33 0.94 1.62 0.95 0.82
1.90 1.85 1.71 1.44 1.23 1.19 1.31 1.21 1.17 1.35 1.95 2.39 2.61 1.95 3.05 3.50 1.56 0.63 0.48 0.23 0.16 0.25 0.69 0.88 0.81 0.71 0.74 0.98 0.92 0.85 0.75 0.61 0.58 0.70 0.91 1.08 0.75 1.05 0.94 0.89 0.63 0.49 0.54 0.41 0.24 0.19 0.15

GFSGBSN_prec_precacc_204.txt.gz
Total_Precipitation_Accumulation
0.45 0.29 0.27 0.30 0.30 0.26 0.25 0.23 0.18 0.14 0.09 0.06 0.06 0.05 0.04 0.03 0.02 0.02 0.02 0.01 0.00 0.01 0.01 0.00 0.01 0.02 0.01 0.00 0.00 0.00 0.00 0.00 0.00 0.00 0.00 0.00 0.00 0.00 0.00 0.00 0.00 0.00 0.00 0.00 0.00 0.00 0.00
1.46 1.22 0.77 0.49 0.34 0.25 0.23 0.25 0.27 0.26 0.24 0.19 0.15 0.11 0.08 0.07 0.06 0.04 0.02 0.00 0.01 0.01 0.01 0.01 0.01 0.03 0.01 0.00 0.00 0.00 0.00 0.00 0.00 0.00 0.00 0.00 0.00 0.00 0.00 0.00 0.00 0.00 0.00 0.00 0.00 0.00 0.00
0.67 0.82 1.08 1.08 0.88 0.74 0.57 0.35 0.28 0.26 0.26 0.25 0.21 0.18 0.18 0.16 0.14 0.11 0.05 0.01 0.00 0.01 0.01 0.01 0.02 0.04 0.01 0.00 0.00 0.00 0.00 0.00 0.00 0.00 0.00 0.00 0.00 0.00 0.00 0.00 0.00 0.00 0.00 0.00 0.00 0.00 0.00
0.64 0.57 0.55 0.62 0.85 0.95 0.92 0.80 0.66 0.50 0.39 0.40 0.40 0.37 0.31 0.26 0.17 0.09 0.04 0.01 0.00 0.01 0.01 0.01 0.02 0.03 0.00 0.00 0.00 0.00 0.00 0.00 0.00 0.00 0.00 0.00 0.00 0.00 0.00 0.00 0.00 0.00 0.00 0.00 0.00 0.00 0.00
0.54 0.60 0.61 0.62 0.67 0.69 0.67 0.63 0.55 0.47 0.47 0.42 0.36 0.29 0.25 0.18 0.17 0.16 0.11 0.03 0.00 0.01 0.01 0.01 0.01 0.02 0.00 0.00 0.00 0.00 0.00 0.00 0.00 0.00 0.00 0.00 0.00 0.00 0.00 0.00 0.00 0.00 0.00 0.00 0.00 0.00 0.00
0.39 0.38 0.38 0.41 0.42 0.40 0.35 0.29 0.22 0.21 0.21 0.21 0.19 0.18 0.15 0.13 0.14 0.16 0.11 0.07 0.02 0.00 0.00 0.00 0.02 0.01 0.00 0.00 0.00 0.00 0.00 0.01 0.02 0.00 0.00 0.00 0.00 0.00 0.00 0.00 0.00 0.00 0.00 0.00 0.00 0.00 0.00
0.47 0.39 0.33 0.29 0.25 0.25 0.24 0.26 0.29 0.26 0.21 0.18 0.14 0.11 0.12 0.13 0.15 0.16 0.09 0.06 0.07 0.09 0.04 0.01 0.01 0.01 0.00 0.00 0.00 0.00 0.00 0.00 0.01 0.01 0.01 0.03 0.00 0.00 0.01 0.00 0.00 0.00 0.00 0.00 0.00 0.00 0.00
0.52 0.46 0.40 0.36 0.33 0.34 0.34 0.35 0.31 0.24 0.22 0.17 0.15 0.14 0.13 0.11 0.15 0.14 0.04 0.05 0.03 0.11 0.16 0.03 0.01 0.00 0.00 0.00 0.00 0.00 0.00 0.01 0.02 0.04 0.05 0.04 0.04 0.00 0.00 0.00 0.00 0.02 0.02 0.00 0.00 0.00 0.00
0.62 0.57 0.49 0.40 0.36 0.32 0.32 0.34 0.34 0.34 0.30 0.21 0.16 0.16 0.17 0.15 0.14 0.07 0.01 0.01 0.01 0.07 0.22 0.03 0.00 0.00 0.00 0.01 0.00 0.00 0.00 0.00 0.05 0.11 0.06 0.09 0.03 0.00 0.00 0.00 0.01 0.01 0.01 0.00 0.00 0.00 0.02
0.70 0.64 0.56 0.48 0.42 0.38 0.36 0.35 0.31 0.28 0.27 0.25 0.21 0.19 0.22 0.26 0.13 0.04 0.03 0.01 0.03 0.21 0.42 0.04 0.02 0.03 0.04 0.07 0.01 0.00 0.00 0.00 0.07 0.09 0.09 0.21 0.04 0.02 0.03 0.02 0.01 0.06 0.00 0.00 0.02 0.08 0.10
0.78 0.66 0.56 0.50 0.47 0.44 0.39 0.35 0.29 0.29 0.29 0.35 0.30 0.24 0.28 0.27 0.15 0.10 0.04 0.01 0.13 0.37 0.50 0.05 0.11 0.05 0.07 0.05 0.01 0.06 0.00 0.00 0.02 0.07 0.20 0.33 0.21 0.24 0.22 0.05 0.02 0.07 0.00 0.01 0.01 0.02 0.08
0.93 0.76 0.61 0.51 0.49 0.46 0.41 0.38 0.32 0.31 0.28 0.29 0.37 0.32 0.38 0.31 0.14 0.03 0.01 0.09 0.31 0.82 0.39 0.03 0.14 0.10 0.14 0.09 0.01 0.02 0.01 0.00 0.00 0.05 0.06 0.10 0.03 0.06 0.05 0.00 0.01 0.02 0.02 0.03 0.05 0.09 0.22
1.44 1.16 0.97 0.78 0.72 0.65 0.53 0.46 0.39 0.36 0.32 0.35 0.44 0.48 0.49 0.23 0.17 0.14 0.22 0.56 1.06 0.71 0.06 0.03 0.08 0.25 0.16 0.20 0.22 0.05 0.02 0.00 0.00 0.03 0.07 0.07 0.06 0.05 0.03 0.12 0.05 0.05 0.04 0.14 0.31 0.24 0.12
2.73 1.92 1.51 1.22 0.95 0.83 0.73 0.68 0.62 0.58 0.52 0.59 0.69 0.84 0.82 0.43 0.22 0.32 0.77 1.64 1.24 0.33 0.02 0.00 0.11 0.23 0.24 0.17 0.24 0.05 0.02 0.02 0.02 0.02 0.04 0.05 0.19 0.07 0.05 0.27 0.12 0.05 0.05 0.10 0.36 0.22 0.19
3.81 3.52 2.71 1.98 1.58 1.30 1.09 1.00 1.01 0.99 1.07 1.19 1.74 1.88 1.50 0.63 0.46 0.81 1.81 2.06 0.66 0.21 0.01 0.00 0.01 0.10 0.11 0.11 0.45 0.54 0.44 0.13 0.10 0.06 0.20 0.14 0.18 0.08 0.04 0.05 0.07 0.08 0.08 0.05 0.20 0.23 0.32
2.94 3.29 3.64 3.66 2.38 1.75 1.56 1.37 1.21 1.43 1.71 2.02 2.32 2.35 1.31 0.48 0.94 1.94 2.94 1.45 0.14 0.03 0.01 0.01 0.02 0.02 0.13 0.08 0.23 0.85 0.41 0.17 0.04 0.02 0.10 0.19 0.23 0.09 0.12 0.08 0.05 0.04 0.04 0.10 0.23 0.54 0.43
2.14 2.40 2.73 3.16 3.55 2.72 2.03 1.66 1.59 1.64 2.02 2.85 4.12 3.79 1.88 0.85 2.36 3.97 2.75 0.67 0.05 0.00 0.03 0.06 0.06 0.07 0.06 0.07 0.14 0.37 0.44 0.40 0.09 0.05 0.06 0.13 0.28 0.17 0.18 0.26 0.06 0.04 0.07 0.10 0.21 0.24 0.46
1.98 2.05 2.10 2.36 2.64 2.98 3.11 2.24 1.87 2.06 2.35 4.06 4.73 3.75 2.32 1.50 3.19 2.95 1.07 0.18 0.07 0.03 0.03 0.07 0.05 0.08 0.19 0.21 0.12 0.12 0.22 0.34 0.23 0.25 0.10 0.09 0.20 0.17 0.04 0.10 0.04 0.05 0.08 0.11 0.36 0.35 0.48
1.91 2.02 1.90 1.98 2.10 2.24 2.77 3.70 3.04 2.83 3.31 3.77 4.74 3.66 3.85 2.45 2.08 1.14 0.37 0.21 0.14 0.10 0.05 0.08 0.09 0.07 0.13 0.19 0.19 0.20 0.15 0.13 0.17 0.20 0.25 0.16 0.37 0.55 0.35 0.17 0.11 0.13 0.06 0.13 0.27 0.28 0.50
1.85 1.75 1.69 1.88 2.03 2.01 2.12 2.92 3.67 3.41 3.48 4.11 5.28 5.22 6.24 4.71 1.35 0.39 0.34 0.40 0.31 0.12 0.12 0.10 0.10 0.11 0.12 0.12 0.08 0.18 0.21 0.17 0.06 0.10 0.15 0.18 0.25 0.51 0.79 0.62 0.52 0.28 0.08 0.07 0.16 0.55 0.74
1.98 1.76 1.55 1.64 1.92 2.07 2.11 2.35 3.12 3.18 3.74 5.92 7.00 3.95 2.44 2.99 1.75 0.38 0.27 0.40 0.37 0.34 0.21 0.18 0.26 0.17 0.12 0.24 0.27 0.30 0.24 0.27 0.19 0.15 0.23 0.29 0.27 0.17 0.13 0.17 0.66 0.50 0.18 0.15 0.26 0.19 0.46
2.00 1.84 1.60 1.57 1.86 2.18 2.42 2.38 2.84 3.44 4.49 7.60 7.08 3.23 1.59 0.78 0.53 0.81 0.78 0.52 0.35 0.29 0.37 0.40 0.33 0.22 0.27 0.40 0.31 0.31 0.30 0.46 0.31 0.21 0.29 0.46 0.47 0.20 0.12 0.09 0.42 0.44 0.15 0.11 0.14 0.17 0.33
1.97 1.80 1.76 1.57 1.52 1.78 2.20 2.51 2.77 3.73 5.93 8.94 5.37 1.85 1.35 1.37 1.08 1.36 1.08 0.44 0.30 0.31 0.49 0.36 0.33 0.45 0.50 0.28 0.27 0.32 0.30 0.25 0.22 0.19 0.31 0.47 0.69 0.84 0.58 0.17 0.70 1.07 0.75 0.50 0.36 0.45 0.31
1.65 1.81 1.71 1.63 1.55 1.48 1.66 1.94 2.35 3.34 5.56 5.62 3.41 1.38 1.93 1.93 1.01 0.75 0.35 0.29 0.30 0.35 0.47 0.49 0.47 0.56 0.39 0.29 0.38 0.36 0.27 0.17 0.13 0.11 0.16 0.42 0.61 0.92 0.65 0.62 1.47 1.00 0.65 0.68 0.89 0.67 0.78
1.64 1.67 1.83 1.60 1.59 1.59 1.63 1.80 2.22 2.50 4.06 5.03 3.55 1.98 1.93 1.70 0.98 0.84 0.68 0.58 0.61 0.69 0.78 0.68 0.54 0.43 0.49 0.69 0.81 0.67 0.48 0.38 0.20 0.10 0.15 0.17 0.47 1.21 1.14 0.97 0.74 0.41 0.25 0.30 0.51 0.45 0.35
1.68 1.66 1.86 1.67 1.55 1.43 1.48 1.65 1.79 1.82 2.60 4.53 4.78 2.72 2.64 2.19 1.28 0.56 0.54 0.52 0.66 0.81 0.81 0.62 0.57 0.46 0.60 0.97 1.15 0.92 0.56 0.44 0.35 0.41 0.15 0.21 0.36 1.04 1.04 1.10 0.61 0.47 0.31 0.13 0.35 0.75 0.42
1.76 1.68 1.67 1.66 1.53 1.41 1.34 1.27 1.24 1.54 2.10 3.04 3.73 2.93 4.39 3.43 1.12 0.60 0.56 0.50 0.42 0.68 0.87 0.66 0.75 0.83 0.81 1.25 1.13 0.60 0.40 0.26 0.38 0.70 0.64 0.46 0.65 0.91 0.75 1.28 0.69 0.17 0.23 0.32 1.19 1.31 0.71
1.88 1.77 1.59 1.42 1.35 1.39 1.42 1.23 1.09 1.34 2.04 2.77 2.84 2.05 4.12 3.09 1.31 0.78 0.47 0.33 0.36 0.67 1.05 0.94 1.15 1.09 1.14 1.18 1.11 0.80 0.56 0.38 0.37 0.55 0.94 0.82 0.86 0.88 1.06 1.23 0.74 0.20 0.33 0.94 1.62 0.95 0.82
1.90 1.85 1.72 1.45 1.24 1.19 1.33 1.24 1.22 1.43 2.11 2.58 2.78 2.05 3.09 3.64 1.88 0.87 0.62 0.33 0.23 0.30 0.74 0.96 0.85 0.72 0.74 0.99 0.93 0.85 0.75 0.61 0.58 0.70 0.91 1.08 0.75 1.05 0.94 0.89 0.63 0.49 0.54 0.41 0.24 0.19 0.15

GFSGBSN_prec_precacc_207.txt.gz
Total_Precipitation_Accumulation
0.45 0.29 0.27 0.30 0.30 0.26 0.25 0.23 0.18 0.14 0.09 0.06 0.06 0.05 0.04 0.03 0.02 0.02 0.02 0.01 0.00 0.01 0.01 0.00 0.01 0.02 0.01 0.00 0.00 0.00 0.00 0.00 0.00 0.00 0.00 0.00 0.00 0.00 0.00 0.00 0.00 0.00 0.00 0.00 0.00 0.00 0.00
1.46 1.22 0.77 0.49 0.34 0.25 0.23 0.25 0.27 0.26 0.24 0.19 0.15 0.11 0.08 0.07 0.06 0.04 0.02 0.00 0.01 0.01 0.01 0.01 0.01 0.03 0.01 0.00 0.00 0.00 0.00 0.00 0.00 0.00 0.00 0.00 0.00 0.00 0.00 0.00 0.00 0.00 0.00 0.00 0.00 0.00 0.00
0.67 0.82 1.08 1.08 0.88 0.74 0.57 0.35 0.28 0.26 0.26 0.25 0.21 0.18 0.18 0.16 0.14 0.11 0.05 0.01 0.00 0.01 0.01 0.01 0.02 0.04 0.01 0.00 0.00 0.00 0.00 0.00 0.00 0.00 0.00 0.00 0.00 0.00 0.00 0.00 0.00 0.00 0.00 0.00 0.00 0.00 0.00
0.64 0.57 0.55 0.62 0.85 0.95 0.92 0.80 0.66 0.50 0.39 0.40 0.40 0.37 0.31 0.26 0.17 0.09 0.04 0.01 0.00 0.01 0.01 0.01 0.02 0.03 0.00 0.00 0.00 0.00 0.00 0.00 0.00 0.00 0.00 0.00 0.00 0.00 0.00 0.00 0.00 0.00 0.00 0.00 0.00 0.00 0.00
0.54 0.60 0.61 0.62 0.67 0.69 0.67 0.63 0.55 0.47 0.47 0.42 0.36 0.29 0.25 0.18 0.17 0.16 0.11 0.03 0.00 0.01 0.01 0.01 0.01 0.02 0.00 0.00 0.00 0.00 0.00 0.00 0.00 0.00 0.00 0.00 0.00 0.00 0.00 0.00 0.00 0.00 0.00 0.00 0.00 0.00 0.00
0.39 0.38 0.38 0.41 0.42 0.40 0.35 0.29 0.22 0.21 0.21 0.21 0.19 0.18 0.15 0.13 0.14 0.16 0.11 0.07 0.02 0.00 0.00 0.00 0.02 0.01 0.00 0.00 0.00 0.00 0.00 0.01 0.02 0.00 0.00 0.00 0.00 0.00 0.00 0.00 0.00 0.00 0.00 0.00 0.00 0.00 0.00
0.47 0.39 0.33 0.29 0.25 0.25 0.24 0.26 0.29 0.26 0.21 0.18 0.14 0.11 0.12 0.13 0.15 0.16 0.09 0.06 0.07 0.09 0.04 0.01 0.01 0.01 0.00 0.00 0.00 0.00 0.00 0.00 0.01 0.01 0.01 0.03 0.00 0.00 0.01 0.00 0.00 0.00 0.00 0.00 0.00 0.00 0.00
0.52 0.46 0.40 0.36 0.33 0.34 0.34 0.35 0.31 0.24 0.22 0.17 0.15 0.14 0.13 0.11 0.15 0.14 0.04 0.05 0.03 0.11 0.16 0.03 0.01 0.00 0.00 0.00 0.00 0.00 0.00 0.01 0.02 0.04 0.05 0.04 0.04 0.00 0.00 0.00 0.00 0.02 0.02 0.00 0.00 0.00 0.00
0.62 0.57 0.49 0.40 0.36 0.32 0.32 0.34 0.34 0.34 0.30 0.21 0.16 0.16 0.17 0.15 0.14 0.07 0.01 0.01 0.01 0.07 0.22 0.03 0.00 0.00 0.00 0.01 0.00 0.00 0.00 0.00 0.05 0.11 0.06 0.09 0.03 0.00 0.00 0.00 0.01 0.01 0.01 0.00 0.00 0.00 0.02
0.72 0.65 0.57 0.49 0.42 0.38 0.36 0.35 0.31 0.28 0.27 0.25 0.21 0.19 0.22 0.26 0.13 0.04 0.03 0.01 0.03 0.21 0.42 0.04 0.02 0.03 0.04 0.07 0.01 0.00 0.00 0.00 0.07 0.09 0.09 0.21 0.04 0.02 0.03 0.02 0.01 0.06 0.00 0.00 0.02 0.08 0.10
0.80 0.68 0.57 0.51 0.48 0.44 0.39 0.35 0.29 0.29 0.29 0.35 0.30 0.24 0.28 0.27 0.15 0.10 0.04 0.01 0.13 0.37 0.51 0.05 0.11 0.05 0.07 0.05 0.01 0.06 0.00 0.00 0.02 0.07 0.20 0.33 0.21 0.24 0.22 0.05 0.02 0.07 0.00 0.01 0.01 0.02 0.08
0.96 0.77 0.62 0.52 0.49 0.46 0.42 0.38 0.32 0.31 0.28 0.29 0.37 0.32 0.38 0.31 0.14 0.03 0.01 0.09 0.31 0.83 0.40 0.03 0.14 0.10 0.14 0.09 0.01 0.02 0.01 0.00 0.00 0.05 0.06 0.10 0.03 0.06 0.05 0.00 0.01 0.02 0.02 0.03 0.05 0.09 0.22
1.51 1.18 0.98 0.79 0.72 0.66 0.55 0.48 0.40 0.36 0.32 0.35 0.44 0.48 0.49 0.24 0.17 0.14 0.22 0.56 1.09 0.74 0.06 0.03 0.08 0.25 0.16 0.20 0.22 0.05 0.02 0.00 0.00 0.03 0.07 0.07 0.06 0.05 0.03 0.12 0.05 0.05 0.04 0.14 0.31 0.24 0.12
2.79 1.98 1.53 1.23 0.95 0.84 0.74 0.71 0.65 0.61 0.54 0.60 0.70 0.84 0.82 0.44 0.22 0.32 0.83 1.73 1.33 0.36 0.03 0.00 0.11 0.23 0.24 0.17 0.24 0.05 0.02 0.02 0.02 0.02 0.04 0.05 0.19 0.07 0.05 0.27 0.12 0.05 0.05 0.10 0.36 0.22 0.19
3.83 3.55 2.74 2.00 1.59 1.30 1.09 1.01 1.04 1.05 1.18 1.38 2.04 2.08 1.55 0.63 0.47 0.89 2.09 2.30 0.72 0.21 0.02 0.00 0.01 0.10 0.11 0.11 0.45 0.54 0.44 0.13 0.10 0.06 0.20 0.14 0.18 0.08 0.04 0.05 0.07 0.08 0.08 0.05 0.20 0.23 0.32
2.97 3.31 3.66 3.68 2.40 1.76 1.56 1.37 1.21 1.45 1.76 2.25 2.90 2.84 1.55 0.49 0.95 2.23 3.44 1.65 0.15 0.03 0.01 0.01 0.02 0.02 0.13 0.08 0.23 0.85 0.41 0.17 0.04 0.02 0.10 0.19 0.23 0.09 0.12 0.08 0.05 0.04 0.04 0.10 0.23 0.54 0.43
2.19 2.43 2.74 3.17 3.56 2.72 2.03 1.66 1.59 1.64 2.03 3.00 4.71 4.37 2.10 0.91 2.60 4.40 3.09 0.73 0.05 0.00 0.03 0.06 0.07 0.08 0.06 0.07 0.14 0.37 0.44 0.40 0.09 0.05 0.06 0.13 0.28 0.17 0.18 0.26 0.06 0.04 0.07 0.10 0.21 0.24 0.46
1.99 2.06 2.11 2.37 2.64 2.98 3.11 2.24 1.87 2.06 2.43 4.49 5.31 4.21 2.57 1.64 3.69 3.51 1.21 0.19 0.07 0.03 0.03 0.07 0.05 0.08 0.19 0.21 0.13 0.13 0.22 0.34 0.23 0.25 0.10 0.09 0.20 0.17 0.04 0.10 0.04 0.05 0.08 0.11 0.36 0.35 0.48
1.91 2.02 1.90 1.99 2.10 2.25 2.77 3.70 3.04 2.83 3.41 4.16 5.25 4.00 4.13 2.75 2.33 1.28 0.40 0.21 0.14 0.10 0.05 0.08 0.09 0.07 0.13 0.19 0.23 0.24 0.16 0.14 0.17 0.20 0.26 0.16 0.37 0.55 0.35 0.17 0.11 0.13 0.06 0.13 0.27 0.28 0.50
1.85 1.75 1.69 1.88 2.03 2.01 2.12 2.92 3.68 3.41 3.50 4.38 5.77 5.65 6.57 5.10 1.53 0.43 0.35 0.40 0.32 0.12 0.12 0.10 0.10 0.11 0.14 0.17 0.13 0.27 0.26 0.18 0.07 0.10 0.15 0.19 0.25 0.51 0.79 0.63 0.54 0.28 0.08 0.07 0.16 0.55 0.74
1.98 1.76 1.55 1.64 1.92 2.08 2.11 2.35 3.12 3.19 3.77 6.12 7.54 4.48 2.71 3.13 1.81 0.40 0.28 0.41 0.37 0.34 0.21 0.18 0.27 0.18 0.12 0.33 0.38 0.40 0.28 0.34 0.23 0.16 0.23 0.32 0.30 0.17 0.13 0.17 0.66 0.51 0.18 0.15 0.26 0.19 0.47
2.00 1.84 1.60 1.58 1.86 2.18 2.42 2.38 2.85 3.45 4.56 7.87 7.57 3.62 1.81 0.85 0.53 0.82 0.79 0.57 0.37 0.29 0.39 0.43 0.34 0.22 0.31 0.54 0.37 0.36 0.38 0.53 0.37 0.24 0.31 0.48 0.48 0.20 0.12 0.09 0.42 0.44 0.15 0.11 0.14 0.17 0.33
1.97 1.80 1.76 1.57 1.52 1.78 2.20 2.51 2.77 3.74 6.02 9.30 5.78 2.12 1.47 1.46 1.12 1.39 1.11 0.44 0.30 0.33 0.57 0.42 0.37 0.51 0.67 0.35 0.31 0.41 0.36 0.33 0.27 0.20 0.32 0.48 0.70 0.88 0.60 0.17 0.70 1.07 0.75 0.50 0.36 0.45 0.31
1.65 1.81 1.71 1.63 1.55 1.48 1.66 1.95 2.36 3.37 5.61 5.82 3.67 1.51 2.02 2.03 1.06 0.80 0.36 0.29 0.31 0.39 0.57 0.62 0.58 0.65 0.48 0.31 0.46 0.51 0.39 0.23 0.15 0.13 0.17 0.44 0.63 0.98 0.69 0.62 1.48 1.00 0.65 0.68 0.89 0.67 0.78
1.64 1.67 1.83 1.60 1.59 1.60 1.64 1.80 2.23 2.52 4.09 5.13 3.77 2.24 2.14 1.83 1.04 0.85 0.68 0.59 0.62 0.75 0.96 0.84 0.60 0.45 0.53 0.79 0.99 0.83 0.59 0.45 0.23 0.12 0.16 0.19 0.51 1.27 1.17 0.99 0.75 0.41 0.25 0.30 0.51 0.45 0.35
1.68 1.67 1.87 1.68 1.56 1.44 1.48 1.66 1.80 1.83 2.64 4.61 4.90 2.95 2.96 2.54 1.53 0.61 0.55 0.52 0.67 0.89 1.00 0.80 0.66 0.53 0.71 1.11 1.26 0.99 0.59 0.45 0.36 0.41 0.16 0.23 0.40 1.12 1.09 1.13 0.62 0.47 0.31 0.13 0.35 0.75 0.42
1.76 1.68 1.68 1.67 1.54 1.42 1.35 1.29 1.26 1.56 2.13 3.10 3.89 3.08 4.67 3.92 1.49 0.70 0.59 0.52 0.43 0.70 0.94 0.79 0.92 1.06 0.94 1.34 1.20 0.63 0.43 0.26 0.38 0.70 0.65 0.51 0.73 0.99 0.78 1.33 0.70 0.17 0.23 0.32 1.19 1.31 0.71
1.88 1.78 1.60 1.43 1.36 1.40 1.44 1.25 1.12 1.38 2.08 2.82 2.89 2.18 4.31 3.43 1.69 0.99 0.53 0.34 0.37 0.68 1.09 1.12 1.35 1.31 1.30 1.28 1.18 0.83 0.56 0.38 0.37 0.55 0.94 0.83 0.88 0.90 1.08 1.26 0.76 0.20 0.33 0.94 1.62 0.95 0.82
1.90 1.85 1.72 1.45 1.25 1.20 1.34 1.25 1.23 1.45 2.15 2.63 2.83 2.08 3.20 3.89 2.27 1.17 0.79 0.38 0.24 0.31 0.83 1.17 1.03 0.81 0.79 1.04 0.98 0.88 0.76 0.62 0.58 0.70 0.91 1.08 0.75 1.05 0.94 0.89 0.63 0.49 0.54 0.41 0.24 0.19 0.15

GFSGBSN_prec_precacc_210.txt.gz
Total_Precipitation_Accumulation
0.45 0.29 0.27 0.30 0.30 0.26 0.25 0.23 0.18 0.14 0.09 0.06 0.06 0.05 0.04 0.03 0.02 0.02 0.02 0.01 0.00 0.01 0.01 0.00 0.01 0.02 0.01 0.00 0.00 0.00 0.00 0.00 0.00 0.00 0.00 0.00 0.00 0.00 0.00 0.00 0.00 0.00 0.00 0.00 0.00 0.00 0.00
1.46 1.22 0.77 0.49 0.34 0.25 0.23 0.25 0.27 0.26 0.24 0.19 0.15 0.11 0.08 0.07 0.06 0.04 0.02 0.00 0.01 0.01 0.01 0.01 0.01 0.03 0.01 0.00 0.00 0.00 0.00 0.00 0.00 0.00 0.00 0.00 0.00 0.00 0.00 0.00 0.00 0.00 0.00 0.00 0.00 0.00 0.00
0.67 0.82 1.08 1.08 0.88 0.74 0.57 0.35 0.28 0.26 0.26 0.25 0.21 0.18 0.18 0.16 0.14 0.11 0.05 0.01 0.00 0.01 0.01 0.01 0.02 0.04 0.01 0.00 0.00 0.00 0.00 0.00 0.00 0.00 0.00 0.00 0.00 0.00 0.00 0.00 0.00 0.00 0.00 0.00 0.00 0.00 0.00
0.64 0.57 0.55 0.62 0.85 0.95 0.92 0.80 0.66 0.50 0.39 0.40 0.40 0.37 0.31 0.26 0.17 0.09 0.04 0.01 0.00 0.01 0.01 0.01 0.02 0.03 0.00 0.00 0.00 0.00 0.00 0.00 0.00 0.00 0.00 0.00 0.00 0.00 0.00 0.00 0.00 0.00 0.00 0.00 0.00 0.00 0.00
0.54 0.60 0.61 0.62 0.67 0.69 0.67 0.63 0.55 0.47 0.47 0.42 0.36 0.29 0.25 0.18 0.17 0.16 0.11 0.03 0.00 0.01 0.01 0.01 0.01 0.02 0.00 0.00 0.00 0.00 0.00 0.00 0.00 0.00 0.00 0.00 0.00 0.00 0.00 0.00 0.00 0.00 0.00 0.00 0.00 0.00 0.00
0.39 0.38 0.38 0.41 0.42 0.40 0.35 0.29 0.22 0.21 0.21 0.21 0.19 0.18 0.15 0.13 0.14 0.16 0.11 0.07 0.02 0.00 0.00 0.00 0.02 0.01 0.00 0.00 0.00 0.00 0.00 0.01 0.02 0.00 0.00 0.00 0.00 0.00 0.00 0.00 0.00 0.00 0.00 0.00 0.00 0.00 0.00
0.47 0.39 0.33 0.29 0.25 0.25 0.24 0.26 0.29 0.26 0.21 0.18 0.14 0.11 0.12 0.13 0.15 0.16 0.09 0.06 0.07 0.09 0.04 0.01 0.01 0.01 0.00 0.00 0.00 0.00 0.00 0.00 0.01 0.01 0.01 0.03 0.00 0.00 0.01 0.00 0.00 0.00 0.00 0.00 0.00 0.00 0.00
0.52 0.46 0.40 0.36 0.33 0.34 0.34 0.35 0.31 0.24 0.22 0.17 0.15 0.14 0.13 0.11 0.15 0.14 0.04 0.05 0.03 0.11 0.16 0.03 0.01 0.00 0.00 0.00 0.00 0.00 0.00 0.01 0.02 0.04 0.05 0.04 0.04 0.00 0.00 0.00 0.00 0.02 0.02 0.00 0.00 0.00 0.00
0.62 0.57 0.49 0.40 0.36 0.32 0.32 0.34 0.34 0.34 0.30 0.21 0.16 0.16 0.17 0.15 0.14 0.07 0.01 0.01 0.01 0.07 0.22 0.03 0.00 0.00 0.00 0.01 0.00 0.00 0.00 0.00 0.05 0.11 0.06 0.09 0.03 0.00 0.00 0.00 0.01 0.01 0.01 0.00 0.00 0.00 0.02
0.73 0.65 0.57 0.49 0.42 0.38 0.36 0.35 0.31 0.28 0.27 0.25 0.21 0.19 0.22 0.26 0.13 0.04 0.03 0.01 0.03 0.21 0.42 0.04 0.02 0.03 0.04 0.07 0.01 0.00 0.00 0.00 0.07 0.09 0.09 0.21 0.04 0.02 0.03 0.02 0.01 0.06 0.00 0.00 0.02 0.08 0.10
0.82 0.70 0.58 0.51 0.48 0.44 0.39 0.35 0.29 0.29 0.29 0.35 0.30 0.24 0.28 0.27 0.15 0.10 0.04 0.01 0.13 0.37 0.52 0.05 0.11 0.05 0.07 0.05 0.01 0.06 0.00 0.00 0.02 0.07 0.20 0.33 0.21 0.24 0.22 0.05 0.02 0.07 0.00 0.01 0.01 0.02 0.08
1.06 0.83 0.66 0.54 0.50 0.46 0.42 0.38 0.32 0.31 0.28 0.29 0.37 0.32 0.38 0.31 0.14 0.03 0.01 0.09 0.31 0.84 0.42 0.03 0.14 0.10 0.14 0.09 0.01 0.02 0.01 0.00 0.00 0.05 0.06 0.10 0.03 0.06 0.05 0.00 0.01 0.02 0.02 0.03 0.05 0.09 0.22
1.68 1.32 1.08 0.84 0.76 0.67 0.56 0.48 0.40 0.36 0.32 0.35 0.44 0.48 0.49 0.24 0.17 0.14 0.22 0.56 1.09 0.76 0.06 0.03 0.08 0.25 0.16 0.20 0.22 0.05 0.02 0.00 0.00 0.03 0.07 0.07 0.06 0.05 0.03 0.12 0.05 0.05 0.04 0.14 0.31 0.24 0.12
2.96 2.18 1.72 1.36 1.03 0.88 0.77 0.71 0.65 0.62 0.54 0.60 0.70 0.84 0.82 0.44 0.22 0.32 0.83 1.75 1.35 0.36 0.03 0.00 0.11 0.23 0.24 0.17 0.24 0.05 0.02 0.02 0.02 0.02 0.04 0.05 0.19 0.07 0.05 0.27 0.12 0.05 0.05 0.10 0.36 0.22 0.19
3.88 3.63 2.88 2.19 1.77 1.42 1.15 1.04 1.05 1.06 1.20 1.44 2.12 2.15 1.59 0.63 0.47 0.89 2.17 2.38 0.72 0.22 0.02 0.00 0.01 0.10 0.11 0.11 0.45 0.54 0.44 0.13 0.10 0.06 0.20 0.14 0.18 0.08 0.04 0.05 0.07 0.08 0.08 0.05 0.20 0.23 0.32
3.01 3.34 3.70 3.76 2.53 1.92 1.70 1.45 1.25 1.49 1.83 2.48 3.34 3.21 1.81 0.53 0.98 2.44 3.79 1.77 0.15 0.03 0.01 0.01 0.02 0.02 0.13 0.08 0.23 0.85 0.41 0.17 0.04 0.02 0.10 0.19 0.23 0.09 0.12 0.08 0.05 0.04 0.04 0.10 0.23 0.54 0.43
2.21 2.48 2.79 3.22 3.61 2.81 2.16 1.81 1.67 1.71 2.21 3.42 5.38 5.00 2.40 1.02 2.86 4.96 3.47 0.79 0.06 0.00 0.03 0.06 0.07 0.08 0.06 0.07 0.14 0.37 0.44 0.40 0.09 0.05 0.06 0.13 0.28 0.17 0.18 0.26 0.06 0.04 0.07 0.10 0.21 0.24 0.46
2.00 2.09 2.16 2.43 2.70 3.04 3.17 2.33 1.97 2.16 2.65 5.10 5.98 4.68 2.80 1.78 4.30 4.00 1.32 0.19 0.08 0.03 0.03 0.07 0.05 0.08 0.19 0.21 0.14 0.13 0.22 0.34 0.23 0.25 0.11 0.10 0.21 0.17 0.04 0.10 0.04 0.05 0.08 0.11 0.36 0.35 0.48
1.91 2.02 1.92 2.03 2.17 2.31 2.82 3.76 3.11 2.94 3.64 4.59 5.73 4.30 4.34 2.90 2.53 1.46 0.43 0.21 0.14 0.10 0.05 0.08 0.09 0.07 0.13 0.19 0.27 0.25 0.16 0.14 0.17 0.22 0.29 0.17 0.42 0.56 0.35 0.17 0.11 0.13 0.06 0.13 0.27 0.28 0.50
1.85 1.75 1.70 1.89 2.05 2.08 2.22 3.00 3.78 3.54 3.69 4.82 6.28 6.09 6.94 5.49 1.64 0.45 0.35 0.41 0.32 0.12 0.12 0.10 0.10 0.11 0.15 0.17 0.14 0.27 0.26 0.18 0.07 0.12 0.20 0.22 0.27 0.51 0.79 0.63 0.54 0.28 0.08 0.07 0.16 0.55 0.74
1.98 1.76 1.56 1.65 1.92 2.08 2.13 2.43 3.25 3.37 3.99 6.48 8.19 5.03 2.99 3.36 1.87 0.41 0.28 0.41 0.38 0.35 0.22 0.19 0.27 0.18 0.12 0.34 0.42 0.45 0.30 0.37 0.26 0.19 0.28 0.39 0.33 0.17 0.13 0.17 0.66 0.51 0.18 0.15 0.26 0.19 0.47
2.00 1.84 1.61 1.58 1.86 2.18 2.43 2.39 2.90 3.60 4.81 8.26 8.12 4.06 2.01 0.93 0.55 0.82 0.79 0.57 0.38 0.29 0.39 0.44 0.34 0.22 0.31 0.57 0.41 0.40 0.51 0.67 0.46 0.28 0.34 0.50 0.49 0.20 0.12 0.09 0.42 0.44 0.15 0.11 0.14 0.17 0.33
1.98 1.81 1.77 1.57 1.52 1.78 2.20 2.52 2.79 3.79 6.22 9.67 6.15 2.44 1.67 1.60 1.15 1.40 1.11 0.44 0.30 0.33 0.57 0.42 0.37 0.51 0.73 0.43 0.35 0.55 0.56 0.46 0.33 0.23 0.34 0.50 0.70 0.89 0.62 0.17 0.70 1.09 0.75 0.50 0.36 0.45 0.31
1.66 1.82 1.72 1.63 1.55 1.49 1.67 1.95 2.37 3.40 5.69 5.97 3.81 1.69 2.30 2.33 1.19 0.84 0.37 0.29 0.31 0.39 0.57 0.62 0.59 0.67 0.54 0.34 0.54 0.69 0.61 0.42 0.24 0.15 0.17 0.45 0.64 1.03 0.73 0.64 1.53 1.00 0.65 0.68 0.89 0.67 0.78
1.65 1.68 1.84 1.61 1.60 1.60 1.64 1.81 2.25 2.54 4.14 5.17 3.81 2.37 2.51 2.24 1.26 0.93 0.69 0.59 0.62 0.75 1.01 1.00 0.70 0.48 0.59 0.90 1.25 1.18 0.86 0.63 0.31 0.14 0.16 0.19 0.52 1.34 1.23 1.01 0.75 0.41 0.25 0.30 0.51 0.45 0.35
1.70 1.68 1.88 1.68 1.56 1.45 1.49 1.67 1.82 1.86 2.68 4.66 4.93 3.03 3.18 2.95 1.83 0.71 0.57 0.53 0.68 0.90 1.11 1.02 0.80 0.61 0.79 1.30 1.60 1.30 0.75 0.50 0.39 0.42 0.17 0.24 0.41 1.17 1.15 1.16 0.62 0.47 0.31 0.13 0.35 0.75 0.42
1.78 1.69 1.69 1.67 1.55 1.43 1.36 1.30 1.27 1.58 2.19 3.15 3.91 3.12 4.80 4.30 1.85 0.82 0.67 0.58 0.47 0.76 1.05 0.95 1.10 1.31 1.12 1.57 1.51 0.87 0.58 0.31 0.44 0.72 0.67 0.55 0.78 1.07 0.82 1.38 0.71 0.17 0.23 0.32 1.19 1.31 0.71
1.88 1.78 1.60 1.43 1.36 1.40 1.44 1.25 1.14 1.41 2.13 2.90 2.93 2.21 4.34 3.61 1.98 1.18 0.66 0.44 0.40 0.74 1.17 1.23 1.51 1.59 1.54 1.49 1.40 1.01 0.67 0.43 0.39 0.56 0.94 0.84 0.92 0.94 1.10 1.34 0.80 0.20 0.33 0.94 1.62 0.95 0.82
1.91 1.86 1.72 1.46 1.25 1.21 1.35 1.26 1.25 1.48 2.20 2.70 2.88 2.14 3.25 3.97 2.39 1.31 0.92 0.47 0.28 0.33 0.87 1.29 1.17 0.96 0.90 1.19 1.16 1.03 0.86 0.66 0.59 0.73 0.92 1.08 0.76 1.06 0.94 0.90 0.63 0.49 0.54 0.41 0.24 0.19 0.15